GW3733 Weather Reports


Display with metric or nautical units.
time (UTC)temp
F
wind
direction
speed
MPH
gust
MPH
rain 1hr
in
rain 24hr
in
rain mn
in
humidity
%
barometer
mb
20260510142936 68 355 0.0 0.0 0.00 0.00 0.00 65 1009.9
20260510142433 68 350 0.0 0.0 0.00 0.00 0.00 64 1009.6
20260510141929 68 336 0.0 1.0 0.00 0.00 0.00 65 1009.9
20260510141426 67 350 0.0 0.0 0.00 0.00 0.00 68 1009.4
20260510140924 67 7 0.0 1.0 0.00 0.00 0.00 66 1009.6
20260510140419 67 355 1.0 1.0 0.00 0.00 0.00 64 1009.5
20260510135918 67 357 0.0 0.0 0.00 0.00 0.00 67 1009.6
20260510135410 67 326 1.0 2.0 0.00 0.00 0.00 68 1009.5
20260510134907 67 341 0.0 1.0 0.00 0.00 0.00 68 1009.3
20260510134403 67 343 0.0 1.0 0.00 0.00 0.00 72 1009.4
20260510133900 67 3 0.0 0.0 0.00 0.00 0.00 73 1009.5
20260510133356 66 357 0.0 0.0 0.00 0.00 0.00 76 1009.6
20260510132851 65 7 0.0 0.0 0.00 0.00 0.00 77 1009.5
20260510132349 64 355 0.0 1.0 0.00 0.00 0.00 80 1009.4
20260510131846 64 2 0.0 0.0 0.00 0.00 0.00 78 1009.3
20260510131344 62 4 0.0 0.0 0.00 0.00 0.00 77 1009.4
20260510130840 61 359 0.0 0.0 0.00 0.00 0.00 84 1009.5
20260510130337 60 359 0.0 0.0 0.00 0.00 0.00 87 1009.4
20260510125834 59 359 0.0 0.0 0.00 0.00 0.00 88 1009.5
20260510125330 58 359 0.0 0.0 0.00 0.00 0.00 89 1009.5
20260510124827 57 4 0.0 0.0 0.00 0.00 0.00 90 1009.6
20260510124324 56 0 0.0 0.0 0.00 0.00 0.00 90 1009.5
20260510123820 56 14 0.0 0.0 0.00 0.00 0.00 91 1009.3
20260510123315 55 14 0.0 0.0 0.00 0.00 0.00 93 1009.1
20260510122812 54 14 0.0 0.0 0.00 0.00 0.00 98 1008.9
20260510122307 52 14 0.0 0.0 0.00 0.00 0.00 99 1008.8
20260510121804 52 14 0.0 0.0 0.00 0.00 0.00 99 1008.9
20260510121256 51 14 0.0 0.0 0.00 0.00 0.00 99 1009.0
20260510120753 50 14 0.0 0.0 0.00 0.00 0.00 99 1008.9
20260510120250 50 14 0.0 0.0 0.00 0.00 0.00 99 1008.8
20260510115746 49 14 0.0 0.0 0.00 0.00 0.00 99 1009.0
20260510115244 48 14 0.0 0.0 0.00 0.00 0.00 99 1009.0
20260510114738 47 15 0.0 0.0 0.00 0.00 0.00 99 1009.0
20260510114237 46 14 0.0 0.0 0.00 0.00 0.00 99 1009.4
20260510113731 45 18 0.0 0.0 0.00 0.00 0.00 99 1009.1
20260510113229 44 2 0.0 0.0 0.00 0.00 0.00 99 1009.1
20260510112725 43 2 0.0 0.0 0.00 0.00 0.00 99 1008.9
20260510112222 43 2 0.0 0.0 0.00 0.00 0.00 99 1009.1
20260510111717 42 1 0.0 0.0 0.00 0.00 0.00 99 1008.9
20260510111215 42 1 0.0 0.0 0.00 0.00 0.00 99 1008.7
20260510110714 42 1 0.0 0.0 0.00 0.00 0.00 99 1008.8
20260510110212 42 1 0.0 0.0 0.00 0.00 0.00 99 1008.5
20260510105706 41 2 0.0 0.0 0.00 0.00 0.00 99 1008.5
20260510105201 41 2 0.0 0.0 0.00 0.00 0.00 99 1008.6
20260510104658 41 2 0.0 0.0 0.00 0.00 0.00 99 1008.4
20260510104155 41 2 0.0 0.0 0.00 0.00 0.00 99 1008.3
20260510103652 40 1 0.0 0.0 0.00 0.00 0.00 99 1008.1
20260510103149 41 1 0.0 0.0 0.00 0.00 0.00 99 1008.0
20260510102648 40 1 0.0 0.0 0.00 0.00 0.00 99 1008.2
20260510102145 40 1 0.0 0.0 0.00 0.00 0.00 99 1007.8
20260510101642 40 4 0.0 0.0 0.00 0.00 0.00 99 1007.8
20260510101141 40 3 0.0 0.0 0.00 0.00 0.00 99 1007.8
20260510100636 40 4 0.0 0.0 0.00 0.00 0.00 99 1007.4
20260510100134 40 4 0.0 0.0 0.00 0.00 0.00 99 1007.5
20260510095629 40 5 0.0 0.0 0.00 0.00 0.00 99 1007.3
20260510095124 40 357 0.0 0.0 0.00 0.00 0.00 99 1007.5
20260510094623 40 357 0.0 0.0 0.00 0.00 0.00 99 1007.6
20260510094119 40 357 0.0 0.0 0.00 0.00 0.00 99 1007.4
20260510093616 40 12 0.0 0.0 0.00 0.00 0.00 99 1007.2
20260510093113 40 13 0.0 0.0 0.00 0.00 0.00 99 1007.2
20260510092610 40 13 0.0 0.0 0.00 0.00 0.00 99 1007.2
20260510092109 40 13 0.0 0.0 0.00 0.00 0.00 99 1007.2
20260510091606 40 13 0.0 0.0 0.00 0.00 0.00 99 1007.1
20260510091102 40 13 0.0 0.0 0.00 0.00 0.00 99 1007.2
20260510090600 40 13 0.0 0.0 0.00 0.00 0.00 99 1007.4
20260510090055 40 13 0.0 0.0 0.00 0.00 0.00 99 1007.3
20260510085550 40 13 0.0 0.0 0.00 0.00 0.00 99 1007.1
20260510085046 40 14 0.0 0.0 0.00 0.00 0.00 99 1007.1
20260510084543 40 14 0.0 0.0 0.00 0.00 0.00 99 1007.3
20260510084040 41 14 0.0 0.0 0.00 0.00 0.00 99 1007.1
20260510083536 40 13 0.0 0.0 0.00 0.00 0.00 99 1007.2
20260510083032 40 13 0.0 0.0 0.00 0.00 0.00 99 1007.3
20260510082530 41 13 0.0 0.0 0.00 0.00 0.00 99 1007.1
20260510082025 41 13 0.0 0.0 0.00 0.00 0.00 99 1007.0
20260510081520 41 13 0.0 0.0 0.00 0.00 0.00 99 1007.0
20260510081016 41 13 0.0 0.0 0.00 0.00 0.00 99 1007.0
20260510080515 41 13 0.0 0.0 0.00 0.00 0.00 99 1007.2
20260510080012 41 13 0.0 0.0 0.00 0.00 0.00 99 1007.1
20260510075510 41 13 0.0 0.0 0.00 0.00 0.00 99 1006.9
20260510075006 41 14 0.0 0.0 0.00 0.00 0.00 99 1007.0
20260510074504 41 15 0.0 0.0 0.00 0.00 0.00 99 1007.2
20260510073959 41 352 0.0 1.0 0.00 0.00 0.00 99 1006.9
20260510073455 42 352 0.0 0.0 0.00 0.00 0.00 99 1006.9
20260510072952 41 352 0.0 0.0 0.00 0.00 0.00 99 1007.0
20260510072449 41 351 0.0 1.0 0.00 0.00 0.00 99 1007.1
20260510071944 41 352 0.0 0.0 0.00 0.00 0.00 99 1006.9
20260510071441 41 353 0.0 0.0 0.00 0.00 0.00 99 1006.8
20260510070939 41 352 0.0 0.0 0.00 0.00 0.00 99 1006.9
20260510070436 41 352 0.0 0.0 0.00 0.00 0.00 99 1006.8
20260510065932 41 352 0.0 0.0 0.00 0.00 0.00 99 1006.9
20260510065429 41 352 0.0 0.0 0.00 0.00 0.00 99 1006.6
20260510064924 41 352 0.0 0.0 0.00 0.00 0.00 99 1006.7
20260510064422 41 352 0.0 0.0 0.00 0.00 0.00 99 1006.5
20260510063919 41 352 0.0 0.0 0.00 0.00 0.00 99 1006.5
20260510063415 41 352 0.0 0.0 0.00 0.00 0.00 99 1006.6
20260510062913 41 352 0.0 0.0 0.00 0.00 0.00 99 1006.7
20260510062408 41 352 0.0 0.0 0.00 0.00 0.00 99 1006.7
20260510061904 42 352 0.0 0.0 0.00 0.00 0.00 99 1006.8
20260510061400 41 352 0.0 0.0 0.00 0.00 0.00 99 1006.7
20260510060856 41 352 0.0 0.0 0.00 0.00 0.00 99 1006.9
20260510060354 42 352 0.0 0.0 0.00 0.00 0.00 99 1007.0
20260510055849 42 352 0.0 0.0 0.00 0.00 0.00 99 1007.0
20260510055349 42 351 0.0 0.0 0.00 0.00 0.00 99 1006.8
20260510054842 42 352 0.0 0.0 0.00 0.00 0.00 99 1007.1
20260510054338 42 352 0.0 0.0 0.00 0.00 0.00 99 1007.1
20260510053833 42 352 0.0 0.0 0.00 0.00 0.00 99 1007.1
20260510053329 42 352 0.0 0.0 0.00 0.00 0.00 99 1007.0
20260510052826 42 352 0.0 0.0 0.00 0.00 0.00 99 1007.1
20260510052321 42 352 0.0 0.0 0.00 0.00 0.00 99 1006.9
20260510051818 42 352 0.0 0.0 0.00 0.00 0.00 99 1007.1
20260510051315 42 352 0.0 0.0 0.00 0.00 0.00 99 1007.1
20260510050812 42 352 0.0 0.0 0.00 0.00 0.00 99 1006.9
20260510050308 42 352 0.0 0.0 0.00 0.00 0.00 99 1006.8
20260510045805 42 352 0.0 0.0 0.00 0.00 0.00 99 1006.9
20260510045305 42 352 0.0 0.0 0.00 0.00 0.00 99 1006.9
20260510044759 42 352 0.0 0.0 0.00 0.00 0.00 99 1006.9
20260510044256 43 352 0.0 0.0 0.00 0.00 0.00 99 1006.8
20260510043751 43 352 0.0 0.0 0.00 0.00 0.00 99 1006.7
20260510043243 43 352 0.0 0.0 0.00 0.00 0.00 99 1006.9
20260510042740 43 352 0.0 0.0 0.00 0.00 0.00 99 1006.9
20260510042236 42 352 0.0 0.0 0.00 0.00 0.00 99 1006.8
20260510041733 43 352 0.0 0.0 0.00 0.00 0.00 99 1006.6
20260510041230 43 352 0.0 0.0 0.00 0.00 0.00 99 1006.8
20260510040727 43 352 0.0 0.0 0.00 0.00 0.00 99 1006.6
20260510040224 43 352 0.0 0.0 0.00 0.00 0.00 99 1006.9
20260510035719 44 352 0.0 0.0 0.00 0.00 0.00 99 1006.9
20260510035215 44 352 0.0 0.0 0.00 0.00 0.00 99 1006.7
20260510034711 44 352 0.0 0.0 0.00 0.00 0.00 99 1006.9
20260510034210 44 352 0.0 0.0 0.00 0.00 0.00 99 1007.0
20260510033705 44 352 0.0 0.0 0.00 0.00 0.00 99 1007.0
20260510033204 44 352 0.0 0.0 0.00 0.00 0.00 99 1006.9
20260510032659 44 352 0.0 0.0 0.00 0.00 0.00 99 1006.9
20260510032154 44 352 0.0 0.0 0.00 0.00 0.00 99 1006.9
20260510031649 44 352 0.0 0.0 0.00 0.00 0.00 99 1006.7
20260510031147 45 352 0.0 0.0 0.00 0.00 0.00 99 1006.8
20260510030647 45 352 0.0 0.0 0.00 0.00 0.00 99 1006.8
20260510030145 45 352 0.0 0.0 0.00 0.00 0.00 99 1007.0
20260510025642 45 352 0.0 0.0 0.00 0.00 0.00 98 1006.8
20260510025139 46 352 0.0 0.0 0.00 0.00 0.00 98 1006.9
20260510024636 46 352 0.0 0.0 0.00 0.00 0.00 98 1006.8
20260510024132 46 352 0.0 0.0 0.00 0.00 0.00 98 1006.9
20260510023628 47 352 0.0 0.0 0.00 0.00 0.00 98 1006.8
20260510023125 46 352 0.0 0.0 0.00 0.00 0.00 98 1006.6
20260510022619 46 352 0.0 0.0 0.00 0.00 0.00 98 1006.8
20260510022114 47 352 0.0 0.0 0.00 0.00 0.00 98 1006.5
20260510021610 48 352 0.0 0.0 0.00 0.00 0.00 98 1006.6
20260510021108 47 352 0.0 0.0 0.00 0.00 0.00 97 1006.5
20260510020601 47 352 0.0 0.0 0.00 0.00 0.00 97 1006.4
20260510020057 48 351 0.0 0.0 0.00 0.00 0.00 97 1006.3
20260510015553 48 351 0.0 0.0 0.00 0.00 0.00 97 1006.3
20260510015049 48 351 0.0 0.0 0.00 0.00 0.00 97 1006.2
20260510014546 48 351 0.0 0.0 0.00 0.00 0.00 97 1005.9
20260510014043 48 351 0.0 0.0 0.00 0.00 0.00 96 1006.1
20260510013538 49 351 0.0 0.0 0.00 0.00 0.00 97 1005.9
20260510013034 49 351 0.0 0.0 0.00 0.00 0.00 96 1005.9
20260510012528 49 351 0.0 0.0 0.00 0.00 0.00 96 1005.9
20260510012024 49 351 0.0 0.0 0.00 0.00 0.00 95 1005.6
20260510011519 50 351 0.0 0.0 0.00 0.00 0.00 95 1005.5
20260510011014 50 351 0.0 0.0 0.00 0.00 0.00 95 1005.4
20260510010512 50 354 0.0 0.0 0.00 0.00 0.00 94 1005.2
20260510010009 50 354 0.0 0.0 0.00 0.00 0.00 93 1005.4
20260510005504 51 354 0.0 0.0 0.00 0.00 0.00 93 1005.3
20260510005002 51 354 0.0 0.0 0.00 0.00 0.00 92 1005.2
20260510004459 52 354 0.0 0.0 0.00 0.00 0.00 92 1005.2
20260510003957 52 354 0.0 0.0 0.00 0.00 0.00 91 1005.1
20260510003454 53 354 0.0 0.0 0.00 0.00 0.00 90 1005.1
20260510002949 54 354 0.0 0.0 0.00 0.00 0.00 89 1004.8
20260510002445 54 353 0.0 0.0 0.00 0.00 0.00 89 1004.8
20260510001942 54 353 0.0 0.0 0.00 0.00 0.00 89 1004.8
20260510001439 55 353 0.0 0.0 0.00 0.00 0.00 88 1004.8
20260510000937 55 352 0.0 0.0 0.00 0.00 0.00 87 1004.5
20260510000433 56 353 0.0 0.0 0.00 0.00 0.00 86 1004.5
20260509235929 57 352 0.0 0.0 0.00 0.00 0.00 84 1004.5
20260509235426 58 352 0.0 0.0 0.00 0.00 0.00 82 1004.7
20260509234922 59 352 0.0 0.0 0.00 0.00 0.00 81 1004.4
20260509234419 59 352 0.0 0.0 0.00 0.00 0.00 80 1004.7
20260509233917 60 352 0.0 0.0 0.00 0.00 0.00 78 1004.8
20260509233415 61 352 0.0 0.0 0.00 0.00 0.00 78 1004.5
20260509232911 62 352 0.0 0.0 0.00 0.00 0.00 77 1004.4
20260509232409 63 352 0.0 0.0 0.00 0.00 0.00 75 1004.5
20260509231904 65 352 0.0 0.0 0.00 0.00 0.00 71 1004.7
20260509231401 66 350 0.0 0.0 0.00 0.00 0.00 61 1004.7
20260509230859 67 4 0.0 0.0 0.00 0.00 0.00 58 1004.5
20260509230356 67 354 0.0 0.0 0.00 0.00 0.00 53 1004.7
20260509225851 67 354 0.0 0.0 0.00 0.00 0.00 58 1004.5
20260509225348 68 336 0.0 0.0 0.00 0.00 0.00 56 1004.4
20260509224844 68 0 0.0 0.0 0.00 0.00 0.00 52 1004.8
20260509224340 69 346 0.0 1.0 0.00 0.00 0.00 51 1004.7
20260509223837 69 0 1.0 1.0 0.00 0.00 0.00 52 1004.7
20260509223334 69 345 0.0 0.0 0.00 0.00 0.00 50 1004.9
20260509222831 69 352 0.0 0.0 0.00 0.00 0.00 52 1004.7
20260509222326 69 333 1.0 1.0 0.00 0.00 0.00 50 1004.8
20260509221822 69 25 0.0 1.0 0.00 0.00 0.00 56 1004.5
20260509221320 69 305 1.0 1.0 0.00 0.00 0.00 57 1004.9
20260509220819 69 318 1.0 1.0 0.00 0.00 0.00 60 1004.7
20260509220316 68 19 0.0 1.0 0.00 0.00 0.00 60 1004.7
20260509215811 68 3 0.0 0.0 0.00 0.00 0.00 59 1004.9
20260509215308 68 351 0.0 1.0 0.00 0.00 0.00 60 1004.7
20260509214805 67 16 0.0 0.0 0.00 0.00 0.00 61 1004.7
20260509214302 67 303 3.0 3.0 0.00 0.00 0.00 63 1004.7
20260509213759 67 359 0.0 0.0 0.00 0.00 0.00 62 1004.7
20260509213255 68 354 1.0 1.0 0.00 0.00 0.00 62 1004.8
20260509212752 68 345 1.0 1.0 0.00 0.00 0.00 60 1004.5
20260509212250 67 346 0.0 1.0 0.00 0.00 0.00 62 1004.5
20260509211745 68 307 1.0 2.0 0.00 0.00 0.00 62 1004.5
20260509211242 68 355 1.0 1.0 0.00 0.00 0.00 58 1004.5
20260509210738 68 0 0.0 0.0 0.00 0.00 0.00 55 1004.4
20260509210237 68 351 1.0 1.0 0.00 0.00 0.00 55 1004.2
20260509205735 68 11 1.0 1.0 0.00 0.00 0.00 55 1004.3
20260509205230 68 11 1.0 2.0 0.00 0.00 0.00 56 1004.3
20260509204726 68 14 1.0 1.0 0.00 0.00 0.00 54 1004.4
20260509204223 68 8 0.0 0.0 0.00 0.00 0.00 57 1004.2
20260509203719 68 9 0.0 0.0 0.00 0.00 0.00 54 1004.1
20260509203217 68 8 0.0 0.0 0.00 0.00 0.00 55 1004.0
20260509202712 68 10 0.0 0.0 0.00 0.00 0.00 55 1004.1
20260509202208 68 355 1.0 1.0 0.00 0.00 0.00 56 1004.4
20260509201703 68 358 0.0 0.0 0.00 0.00 0.00 55 1004.4
20260509201200 68 26 0.0 1.0 0.00 0.00 0.00 50 1004.5
20260509200656 68 358 0.0 0.0 0.00 0.00 0.00 50 1004.5
20260509200151 68 78 0.0 1.0 0.00 0.00 0.00 51 1004.3
20260509195647 68 357 0.0 0.0 0.00 0.00 0.00 50 1004.4
20260509195143 68 6 0.0 1.0 0.00 0.00 0.00 51 1004.2
20260509194637 68 9 0.0 1.0 0.00 0.00 0.00 50 1004.2
20260509194134 68 1 0.0 0.0 0.00 0.00 0.00 52 1004.3
20260509193630 68 346 0.0 1.0 0.00 0.00 0.00 53 1004.3
20260509193126 68 1 0.0 0.0 0.00 0.00 0.00 51 1004.4
20260509192623 68 356 0.0 0.0 0.00 0.00 0.00 52 1004.7
20260509192118 69 316 2.0 2.0 0.00 0.00 0.00 52 1004.5
20260509191612 70 26 0.0 0.0 0.00 0.00 0.00 52 1004.5
20260509191109 68 314 2.0 2.0 0.00 0.00 0.00 53 1004.4
20260509190606 68 310 1.0 1.0 0.00 0.00 0.00 54 1004.8
20260509190103 69 76 1.0 2.0 0.00 0.00 0.00 53 1004.5
20260509185601 68 307 2.0 3.0 0.00 0.00 0.00 55 1004.4
20260509185056 68 5 3.0 4.0 0.00 0.00 0.00 54 1004.4
20260509184555 69 359 1.0 2.0 0.00 0.00 0.00 59 1004.7
20260509184051 69 347 1.0 2.0 0.00 0.00 0.00 57 1004.4
20260509183547 68 350 1.0 2.0 0.00 0.00 0.00 55 1004.5
20260509183043 68 330 2.0 3.0 0.00 0.00 0.00 55 1004.5
20260509182539 66 314 2.0 3.0 0.00 0.00 0.00 59 1005.1
20260509182036 67 293 1.0 2.0 0.00 0.00 0.00 61 1005.0
20260509181534 66 2 1.0 1.0 0.00 0.00 0.00 64 1004.9
20260509181031 66 347 2.0 3.0 0.00 0.00 0.00 65 1005.2
20260509180527 65 347 1.0 2.0 0.00 0.00 0.00 62 1005.2
20260509180025 65 351 2.0 3.0 0.00 0.00 0.00 62 1005.3
20260509175520 64 352 0.0 1.0 0.00 0.00 0.00 65 1005.5
20260509175017 64 345 0.0 1.0 0.00 0.00 0.00 64 1005.5
20260509174514 64 351 4.0 6.0 0.00 0.00 0.00 63 1005.4
20260509174014 63 6 0.0 1.0 0.00 0.00 0.00 67 1005.5
20260509173508 63 351 1.0 1.0 0.00 0.00 0.00 65 1005.6
20260509173005 63 313 2.0 2.0 0.00 0.00 0.00 67 1005.5
20260509172502 63 2 0.0 0.0 0.00 0.00 0.00 65 1005.5
20260509171957 62 356 0.0 0.0 0.00 0.00 0.00 67 1005.5
20260509171454 62 53 2.0 3.0 0.00 0.00 0.00 65 1005.9
20260509170950 62 7 1.0 2.0 0.00 0.00 0.00 67 1006.1
20260509170446 61 160 0.0 0.0 0.00 0.00 0.00 67 1006.2
20260509165942 61 15 0.0 1.0 0.00 0.00 0.00 65 1006.1
20260509165441 61 344 0.0 0.0 0.00 0.00 0.00 65 1006.3
20260509164937 62 66 1.0 2.0 0.00 0.00 0.00 64 1006.2
20260509164433 61 14 0.0 0.0 0.00 0.00 0.00 65 1006.2
20260509163929 61 348 2.0 2.0 0.00 0.00 0.00 68 1006.3
20260509163427 61 28 0.0 1.0 0.00 0.00 0.00 67 1006.5
20260509162925 60 20 0.0 0.0 0.00 0.00 0.00 67 1006.6
20260509162425 60 39 2.0 2.0 0.00 0.00 0.00 67 1006.5
20260509161920 61 14 1.0 1.0 0.00 0.00 0.00 66 1006.6
20260509161416 60 354 1.0 1.0 0.00 0.00 0.00 71 1006.7
20260509160912 60 351 0.0 0.0 0.00 0.00 0.00 73 1006.4
20260509160408 60 353 0.0 0.0 0.00 0.00 0.00 70 1006.6
20260509155904 60 337 2.0 2.0 0.00 0.00 0.00 70 1006.5
20260509155401 60 344 1.0 1.0 0.00 0.00 0.00 71 1006.5
20260509154857 60 345 0.0 0.0 0.00 0.00 0.00 69 1006.6
20260509154354 60 8 1.0 2.0 0.00 0.00 0.00 72 1006.5
20260509153850 59 355 0.0 0.0 0.00 0.00 0.00 72 1006.7
20260509153348 59 350 1.0 1.0 0.00 0.00 0.00 71 1006.8
20260509152844 60 354 0.0 0.0 0.00 0.00 0.00 74 1006.5
20260509152340 60 357 1.0 1.0 0.00 0.00 0.00 71 1006.7
20260509151838 61 356 1.0 2.0 0.00 0.00 0.00 70 1006.4
20260509151333 61 76 2.0 2.0 0.00 0.00 0.00 69 1006.4
20260509150832 60 353 1.0 2.0 0.00 0.00 0.00 71 1006.6
20260509150330 60 350 1.0 1.0 0.00 0.00 0.00 72 1006.7
20260509145827 60 41 1.0 1.0 0.00 0.00 0.00 74 1006.7
20260509145321 59 321 1.0 1.0 0.00 0.00 0.00 72 1006.7
20260509144818 59 17 2.0 2.0 0.00 0.00 0.00 76 1006.5
20260509144315 59 318 2.0 2.0 0.00 0.00 0.00 75 1006.5
20260509143812 59 356 0.0 0.0 0.00 0.00 0.00 76 1006.6
20260509143310 59 19 0.0 0.0 0.00 0.00 0.00 74 1006.6